Weather in Spiridonovka

Russia / Samara Oblast     53°06′22″N   50°38′35″E
temp.,
°C
wind,
m/s
gust,
m/s
humid.,
%
clouds,
%
prec.,
mm/h
press.,
hPa
HPBL,
m
25 february, thu
thu2501:00−28nw34950 0.0 103532
04:00−28wnw349515 0.0 103639
07:00−29w129317 0.0 103619
10:00−24ssw238841 0.0 1035103
13:00−20ssw4588100 0.0 1033255
16:00−18s5986100 0.0 1031366
19:00−18s61295100 0.4 1028448
22:00−17s71395100 1.1 1025551
26 february, fri
fri2601:00−15s71394100 1.1 1022600
04:00−13s71294100 1.9 1020606
07:00−12s61194100 0.6 1018507
10:00−11s61092100 0.9 1018491
13:00−9s6992100 0.2 1016517
16:00−8s6993100 0.6 1015475
19:00−8s61195100 0.4 1012415
22:00−6s81495100 1.6 1008361
27 february, sat
sat2701:00−3s91695100 2.5 1002437
04:00+2wsw714100100 7.6 1000396
07:00+1w6139086 0.1 999453
10:00+1wsw6139292 0.1 1000649
13:00+1wsw612100100 0.1 1000610
16:00+1wsw51198100 0.2 1000547
19:000wsw5109593 0.1 999440
22:00−1sw5109696 0.2 999361
28 february, sun
sun2801:000wsw51197100 0.4 998509
04:00−1w5997100 1.3 1000441
07:00−8nw5895100 0.8 1001353
10:00−10nw5893100 1.3 1003462
13:00−11nw5890100 0.1 1006529
16:00−12nw5890100 0.2 1008560
19:00−14nw4994100 0.1 1011403
22:00−17nw489591 0.1 1013203
1 march, mon
mon101:00−17nw489573 0.1 1014234
04:00−18wnw479676 0.1 1016143
07:00−17nw489691 0.1 1018265
10:00−16nnw479488 0.1 1019310
13:00−14nnw469297 0.0 1020415
16:00−14nnw579199 0.1 1021434
19:00−17nw469588 0.0 1023122
22:00−19nw349746 0.0 102440